Theta_e
316 316 316 316 315 314 314 314 314 314 314 314 315 316 316 316 316 315 312 314 316 321 320 312 315 314 316 314 316 318 308 304 306 308 310 313 309 314 319 317 319 320 320 323 325
316 316 316 315 315 314 313 314 313 314 314 314 314 315 315 316 314 314 321 323 317 320 312 309 309 312 310 311 312 310 307 308 312 313 312 314 312 311 313 316 317 318 323 324 323
314 314 314 314 313 313 313 313 314 314 314 314 314 314 315 316 314 313 324 322 320 320 317 311 312 312 308 311 310 309 305 311 313 315 316 314 313 315 314 311 315 315 320 320 321
314 313 313 313 313 313 313 313 313 313 313 313 313 314 315 317 304 315 325 323 322 322 311 308 309 307 306 306 310 305 309 310 312 314 315 314 316 314 315 314 318 319 320 319 319
313 313 312 312 312 313 312 313 312 313 312 312 312 314 316 313 312 321 325 324 320 314 312 309 306 306 304 307 308 306 307 310 312 313 314 316 314 314 314 317 318 319 320 318 317
312 312 312 312 312 312 312 313 313 312 312 313 313 314 315 307 317 321 320 318 315 314 311 311 307 309 306 306 306 308 307 308 310 310 312 312 313 314 314 317 316 315 317 319 319
312 311 311 311 312 312 313 314 314 314 313 313 315 316 312 309 317 321 317 315 314 312 310 311 311 306 307 305 309 307 303 305 307 308 308 311 306 307 314 316 313 314 317 319 321
312 312 310 311 312 313 314 314 314 314 313 314 316 319 310 314 319 316 317 313 314 314 312 312 312 308 307 309 305 303 303 298 305 306 307 306 300 308 312 313 311 311 312 314 317
311 310 310 311 312 313 314 314 315 315 315 316 318 317 307 315 311 315 315 310 310 311 312 311 310 306 306 300 299 301 296 298 301 306 306 304 300 307 311 312 311 311 311 311 312
310 311 310 311 312 313 313 314 314 315 317 319 318 310 312 306 311 311 313 311 307 308 306 306 305 302 302 299 292 295 297 298 298 303 303 301 301 305 309 310 309 309 310 311 313
310 311 311 312 312 313 313 318 314 314 314 309 306 308 308 311 313 310 311 308 308 306 301 305 300 297 299 302 300 299 298 297 300 303 300 300 302 304 308 307 306 307 309 310 310
310 311 311 312 313 313 315 311 309 311 305 309 307 308 311 311 305 308 311 304 304 299 303 300 296 301 302 301 299 298 297 297 300 302 301 300 300 303 306 306 307 307 308 309 310
310 310 311 312 312 313 314 311 316 315 307 304 307 307 307 309 304 304 307 305 302 299 300 297 300 302 299 298 297 298 296 297 297 300 302 299 297 300 304 306 306 307 308 309 310
310 310 311 311 308 316 313 314 317 317 302 299 302 306 307 308 302 309 309 306 302 298 300 299 302 298 298 296 298 294 300 299 297 295 291 300 290 298 301 302 304 305 306 307 310
309 310 311 310 316 312 314 317 319 316 292 301 302 311 307 303 304 304 310 306 299 300 299 297 297 297 296 297 299 296 300 298 298 295 295 295 292 296 301 300 301 304 307 308 311
309 309 310 314 317 315 318 320 317 302 290 298 303 301 301 304 303 305 304 307 306 301 301 299 303 300 299 300 299 301 298 298 297 295 288 293 293 294 298 300 302 305 306 308 309
308 308 310 319 315 320 320 315 301 294 302 297 298 301 300 300 301 302 301 300 298 294 294 298 298 301 301 297 300 299 295 288 287 287 287 296 293 295 300 302 303 303 306 307 309
306 305 313 319 321 320 317 307 294 299 298 302 300 300 297 300 300 300 299 297 301 299 296 292 290 298 301 298 296 296 295 288 282 283 286 295 289 294 302 304 304 304 305 306 307
304 317 319 322 320 318 309 298 299 300 299 297 298 295 296 298 297 297 298 297 300 301 294 293 292 300 300 302 300 296 292 297 290 291 288 291 295 300 301 301 302 303 305 306 308
313 315 317 320 321 315 304 297 301 302 300 300 294 297 294 296 296 297 297 299 298 301 302 298 291 298 300 301 300 298 299 290 291 283 281 287 289 290 297 299 301 302 304 306 308
316 310 316 321 319 308 298 300 302 304 302 298 297 297 297 296 297 296 296 299 300 299 302 300 296 294 298 296 295 294 293 294 293 291 284 283 288 299 299 301 301 303 304 307 308
312 304 316 319 303 305 299 301 297 300 303 300 301 299 297 298 296 296 296 299 301 300 296 300 296 290 293 299 300 299 295 295 288 287 290 289 288 300 302 303 303 303 306 308 309
306 307 315 312 299 300 304 301 301 299 299 299 299 301 302 298 295 297 298 302 302 300 297 300 294 288 290 295 298 295 296 296 295 294 289 286 289 302 303 303 305 305 306 307 309
305 302 308 309 305 299 298 298 297 301 299 301 300 301 299 296 299 296 297 300 301 301 302 301 295 292 287 289 293 290 294 295 293 289 289 290 291 295 298 301 304 305 306 308 308
308 304 303 298 300 299 299 298 295 295 300 300 298 298 297 294 296 295 297 298 300 303 299 299 291 293 293 295 294 293 293 294 293 293 289 292 292 296 299 301 303 305 306 306 307
300 299 302 299 301 298 298 296 295 295 296 295 295 296 297 294 295 293 296 296 295 299 297 298 291 292 291 293 293 291 293 293 293 293 293 293 292 300 302 303 302 303 305 305 306
303 305 301 300 298 297 295 295 294 295 296 297 296 295 295 296 298 298 299 299 298 296 295 294 292 290 286 292 292 288 291 292 293 295 294 289 294 300 299 300 303 305 306 306 306
Wind_Speed
16 15 15 14 14 14 14 15 15 15 15 15 16 16 16 16 19 17 15 4 3 4 6 15 11 14 17 19 20 17 17 18 22 24 12 16 13 13 14 24 15 13 7 7 11
16 16 15 15 14 13 15 14 15 14 14 14 14 15 15 15 18 17 7 9 3 3 13 14 13 13 15 18 18 20 16 26 21 21 18 14 12 15 13 24 20 20 14 7 13
17 17 15 15 14 14 14 14 13 13 13 13 13 14 14 15 14 9 7 6 6 8 14 10 14 14 18 19 21 21 23 23 24 25 23 13 12 12 17 12 21 23 14 14 15
17 16 16 16 16 15 14 13 12 12 11 12 12 14 14 15 3 10 7 6 6 12 9 11 13 15 19 21 20 25 26 23 26 27 18 15 18 10 15 15 18 24 10 12 18
18 17 17 16 16 15 13 12 11 11 10 11 11 12 12 11 1 11 8 8 10 10 10 9 13 15 19 18 20 22 23 23 23 23 22 17 21 18 14 11 8 21 21 13 14
17 17 17 16 15 14 13 12 11 11 10 10 10 11 12 14 9 12 9 8 7 10 0 7 8 12 17 16 19 18 17 21 24 16 22 21 19 19 20 15 14 19 21 20 17
17 17 17 16 15 13 13 11 9 10 10 9 9 11 13 7 4 9 8 7 1 3 8 2 7 6 6 15 16 15 20 17 21 14 19 16 23 27 20 16 17 18 19 21 21
17 16 18 16 15 14 13 12 11 10 10 9 7 12 9 4 4 7 8 7 5 5 8 4 7 12 10 14 6 13 19 19 20 23 23 22 26 25 25 22 14 16 15 14 14
18 18 17 16 15 14 14 12 7 9 9 8 9 11 6 6 11 8 7 8 6 6 5 5 11 13 11 12 14 18 16 23 24 22 19 24 25 23 25 15 19 15 14 15 11
19 17 17 16 16 15 12 8 6 9 9 9 10 8 7 9 4 4 5 7 7 6 9 11 10 13 14 14 15 17 21 18 20 8 10 20 23 19 18 14 14 15 17 13 14
20 16 16 17 16 13 11 7 8 9 11 11 3 7 2 1 5 11 7 8 9 10 14 14 12 14 16 15 16 18 16 19 12 12 5 14 18 17 16 17 18 17 17 14 11
21 19 17 16 17 15 10 4 5 6 8 6 7 7 4 3 6 10 6 10 11 13 11 9 13 17 6 9 12 15 17 18 15 8 10 15 20 18 18 16 19 20 18 18 15
21 19 19 16 15 9 4 3 6 3 9 8 6 7 9 10 9 6 11 12 12 13 13 15 18 7 2 14 13 16 17 16 15 10 9 14 23 23 22 25 21 19 21 18 18
21 19 17 17 4 3 4 4 6 1 8 12 10 8 8 7 8 6 8 12 9 12 9 11 12 4 12 14 13 16 12 14 13 12 14 11 14 16 5 6 12 13 15 15 11
21 20 17 8 13 8 7 7 5 6 7 8 8 6 3 11 5 14 9 11 14 16 7 13 4 10 16 13 12 14 9 10 13 16 18 20 15 15 20 14 14 12 13 8 14
22 20 15 7 9 5 6 5 6 10 4 8 5 8 13 15 12 6 9 13 14 16 17 16 13 9 12 11 7 13 10 14 17 16 18 20 20 17 13 13 13 12 10 12 11
23 19 9 9 7 8 7 7 9 9 5 5 6 7 11 11 12 13 13 16 15 17 17 21 22 20 14 15 15 13 14 13 16 17 16 15 11 13 5 6 14 12 12 11 11
23 14 9 9 7 7 7 10 11 5 5 4 8 11 14 15 14 13 13 16 18 19 17 17 15 15 12 14 18 10 15 11 11 13 14 10 7 7 12 12 2 3 6 6 7
24 6 8 4 6 5 8 10 13 10 6 8 12 15 16 7 6 11 13 16 15 14 18 16 21 13 7 13 13 14 13 12 16 20 18 17 17 12 9 8 9 10 9 8 8
7 4 3 2 3 7 10 14 17 2 9 11 15 10 14 10 9 12 10 5 7 12 9 16 18 14 16 7 14 17 14 11 11 17 20 18 20 13 17 15 14 8 9 8 7
7 5 6 1 4 8 9 14 12 10 9 10 15 17 15 15 14 14 15 8 7 13 9 13 16 18 16 12 19 13 15 17 16 15 8 14 5 11 11 9 9 7 4 8 12
4 5 5 2 7 5 8 7 5 14 14 15 16 17 18 18 18 18 17 14 7 6 17 9 9 14 19 17 8 16 16 20 8 16 15 18 17 10 4 7 6 6 10 9 11
7 4 5 4 5 7 14 17 15 14 15 10 12 12 12 15 16 14 14 12 7 8 7 9 7 13 16 16 13 11 14 15 19 18 20 16 10 18 11 9 9 15 7 8 10
6 4 3 3 2 7 14 16 9 7 9 14 15 16 16 17 18 18 18 8 8 12 8 7 14 19 16 19 6 10 20 12 16 14 18 20 24 15 16 23 17 12 12 10 10
2 4 4 5 7 12 13 15 17 14 8 9 10 14 12 16 18 18 17 16 12 12 10 12 19 21 21 21 24 21 23 18 18 19 22 19 23 19 20 21 20 17 17 15 14
6 6 4 11 7 11 12 11 14 10 11 14 17 17 14 17 16 20 21 20 16 14 16 13 17 20 22 23 21 23 25 22 24 24 26 27 28 23 23 21 21 23 11 15 15
5 2 5 8 5 10 10 10 13 15 10 10 9 13 16 16 17 18 19 18 18 17 16 14 12 15 18 20 22 21 22 22 21 21 22 23 24 22 21 17 13 9 11 17 17
Wind_Direction
337 333 331 329 327 323 318 317 315 313 312 312 311 312 314 317 302 257 255 312 103 34 307 272 231 226 227 239 233 231 247 241 244 256 229 219 230 221 254 206 269 293 287 357 335
332 332 332 330 327 323 317 314 312 310 306 304 304 307 312 316 297 266 88 121 138 258 233 229 231 224 223 227 232 231 238 243 244 252 259 236 203 249 220 206 224 267 268 6 332
336 332 332 328 326 321 318 314 310 307 301 298 299 301 303 304 268 85 90 137 205 248 257 270 256 225 234 227 224 222 242 254 245 251 260 239 179 241 196 214 228 248 306 341 326
332 331 330 326 324 322 319 314 310 305 301 297 297 297 303 273 307 73 125 168 212 262 256 229 238 233 235 232 227 240 240 248 262 273 242 237 256 186 242 216 218 237 295 303 312
332 330 329 327 325 321 319 311 308 305 301 295 292 293 286 222 119 122 156 177 215 232 250 232 234 236 243 243 244 238 250 246 256 267 276 229 241 235 221 227 239 225 246 273 305
330 328 328 326 323 319 316 309 302 296 291 284 280 289 249 256 95 138 191 181 248 247 310 266 255 257 266 268 256 259 249 265 261 243 263 257 248 256 224 226 233 247 244 236 266
328 329 327 324 319 315 312 306 295 285 273 270 273 266 265 298 131 161 190 233 136 284 263 206 307 253 238 259 261 263 270 262 254 244 249 267 254 243 247 237 220 248 235 238 231
330 328 326 321 317 315 313 309 294 267 249 249 256 262 284 116 199 202 203 228 210 242 277 294 264 276 281 272 252 258 250 252 238 227 235 233 252 246 235 229 235 239 246 253 236
331 328 324 318 314 315 312 306 268 230 233 229 230 230 243 120 215 217 215 256 169 231 233 289 255 257 240 246 248 230 249 239 243 247 230 211 246 250 252 211 234 236 242 229 213
333 328 321 316 312 310 306 295 144 179 208 210 259 250 227 205 161 222 216 271 243 231 233 229 238 238 224 240 243 242 228 232 258 194 208 249 253 249 239 224 219 222 230 235 226
333 328 321 316 309 302 291 197 200 196 206 297 142 294 299 167 209 221 186 219 243 243 249 200 253 237 248 241 260 291 293 295 290 228 217 268 266 252 229 203 224 234 240 213 233
334 327 322 317 310 304 273 352 34 339 292 194 243 256 262 254 243 224 202 231 209 253 220 251 242 262 324 305 284 270 258 258 261 261 264 262 264 258 250 239 234 242 223 229 207
335 330 323 318 319 281 305 25 294 286 257 153 194 219 187 214 251 250 190 227 260 261 253 259 282 22 250 254 246 246 258 263 268 268 254 268 263 254 249 244 243 234 251 230 210
334 329 324 320 286 340 210 323 291 277 263 138 194 187 190 225 234 230 210 253 244 266 310 276 261 266 247 248 264 267 249 239 283 273 262 244 280 266 231 217 232 234 237 239 191
332 328 320 305 316 267 11 309 334 237 271 134 146 82 208 238 12 187 221 241 256 282 202 282 203 236 243 250 268 265 307 288 263 268 278 261 259 260 247 219 206 189 190 192 182
331 324 320 222 233 331 296 302 249 236 232 166 186 211 219 215 230 244 204 225 275 280 269 253 281 260 274 284 280 282 286 256 256 255 251 254 252 260 232 208 157 177 195 178 177
329 319 278 310 333 340 313 247 245 247 93 187 229 204 252 269 255 238 246 245 237 244 237 237 230 222 220 255 235 242 249 254 240 226 244 237 254 239 80 156 157 174 179 182 194
323 315 206 272 316 318 276 242 265 299 299 99 286 271 263 267 266 256 255 258 248 251 260 282 278 216 180 234 267 204 267 273 279 291 285 133 235 286 249 152 176 262 256 249 217
313 198 241 196 309 289 266 251 253 350 14 304 293 266 263 230 245 292 253 269 275 279 238 260 261 287 205 214 235 265 266 277 292 281 282 279 280 156 155 161 208 221 210 226 240
297 235 241 69 291 263 256 267 293 305 299 286 273 291 283 273 214 253 258 298 300 275 286 282 281 273 221 270 257 260 276 257 236 264 259 261 249 240 165 194 188 194 210 227 264
263 251 94 359 244 247 253 278 322 314 307 278 277 281 277 277 280 279 282 264 233 277 238 273 272 265 271 202 258 243 234 240 251 256 271 282 280 73 167 146 171 203 255 275 272
279 272 92 241 261 248 280 8 329 291 285 264 267 276 279 285 285 278 275 267 156 265 284 258 284 278 271 272 278 276 258 231 252 243 237 253 272 197 247 168 168 220 251 295 304
305 303 131 271 289 322 324 302 297 280 286 276 265 276 286 286 284 276 270 280 294 295 269 318 251 267 264 262 275 257 259 255 264 254 256 258 268 325 181 207 217 242 284 284 296
290 305 145 165 208 300 317 301 291 295 276 281 289 289 286 277 273 269 270 260 253 230 79 319 275 272 275 297 128 239 236 264 282 255 265 258 271 175 199 242 265 281 294 281 295
343 44 24 311 328 325 299 296 292 293 294 296 281 279 276 291 295 286 289 278 252 206 240 250 263 269 270 276 275 258 258 245 240 263 272 269 270 266 286 286 292 298 285 278 268
328 339 340 289 298 303 300 281 307 308 320 296 300 301 297 293 292 297 300 298 291 287 286 257 255 262 268 273 278 269 270 264 262 261 260 263 264 269 269 277 280 277 278 291 282
3 243 275 285 287 301 303 318 307 310 296 290 293 302 295 302 320 309 299 294 285 275 274 261 266 272 268 272 283 256 257 260 260 265 266 261 267 268 274 273 262 308 303 281 297